Stations météo

réclame
Mon MeteoGroup
Shoreham Airport, Grande-Bretagne (3876): Température de l'air & dewpoint: 15.06.2018 11:00:00 - 21.06.2018 11:00:00 (BST)Shoreham Airport, Grande-Bretagne (3876): Vitesse du vent & gusts: 15.06.2018 11:00:00 - 21.06.2018 11:00:00 (BST)Shoreham Airport, Grande-Bretagne (3876): Direction du vent: 15.06.2018 11:00:00 - 21.06.2018 11:00:00 (BST)Shoreham Airport, Grande-Bretagne (3876): reduced air pressure: 15.06.2018 11:00:00 - 21.06.2018 11:00:00 (BST)Shoreham Airport, Grande-Bretagne (3876): visibility: 15.06.2018 11:00:00 - 21.06.2018 11:00:00 (BST)Shoreham Airport, Grande-Bretagne (3876): Quantités de précipitations: 15.06.2018 11:00:00 - 21.06.2018 11:00:00 (BST)
Date & Time tt [°C] td [°C] ff [km/h] ff [knt] fx [km/h] fx [knt] dd ppp [hPa] vv [km] rr [mm]
21.06.2018 11:00:00 15,3 5,4 18 10 - - NW 1025,4 10 0,0
21.06.2018 10:00:00 15,1 6,3 21 11 - - NNW 1025,0 10 0,0
21.06.2018 09:00:00 13,7 6,3 18 10 - - NNW 1024,6 10 0,0
21.06.2018 08:00:00 13,0 7,2 18 10 - - NNW 1024,1 10 0,0
21.06.2018 07:00:00 11,7 7,2 9 5 - - NW 1023,6 - 0,0
21.06.2018 06:00:00 11,0 6,6 9 5 - - NNW 1023,0 - 0,0
21.06.2018 05:00:00 10,7 6,0 9 5 - - NNW 1022,4 - 0,0
21.06.2018 04:00:00 12,2 6,2 22 12 - - N 1021,5 - 0,0
21.06.2018 03:00:00 13,7 6,9 29 16 - - NNW 1020,9 - 0,0
21.06.2018 02:00:00 14,2 7,6 29 16 - - NNW 1020,4 - 0,0
21.06.2018 01:00:00 14,9 14,0 15 8 - - NW 1020,2 - 0,0
21.06.2018 00:00:00 13,9 13,3 5 3 - - WSW 1020,0 - 0,0
20.06.2018 23:00:00 14,8 14,0 5 3 - - W 1020,0 - 0,0
20.06.2018 22:00:00 16,1 15,0 15 8 - - WSW 1019,8 - 0,0
20.06.2018 21:00:00 15,8 14,5 18 10 - - SW 1019,3 - 0,0
20.06.2018 20:00:00 16,8 15,0 16 9 - - WSW 1019,6 10 0,0
20.06.2018 19:00:00 17,1 14,8 22 12 - - SW 1019,8 10 0,0
20.06.2018 18:00:00 17,6 14,8 24 13 - - SW 1020,0 10 0,0
20.06.2018 17:00:00 18,8 15,2 22 12 - - SW 1020,3 10 0,0
20.06.2018 16:00:00 18,3 15,5 29 16 - - SW 1020,8 10 0,0
20.06.2018 15:00:00 19,0 15,9 28 15 - - SW 1021,1 10 0,0
20.06.2018 14:00:00 17,3 15,1 26 14 - - SW 1021,6 10 0,0
20.06.2018 13:00:00 16,9 14,8 24 13 - - SW 1021,7 10 0,0
20.06.2018 12:00:00 16,4 14,5 21 11 - - SW 1022,0 10 0,0
20.06.2018 11:00:00 15,7 14,3 21 11 - - SW 1022,2 10 0,0
20.06.2018 10:00:00 15,3 14,0 18 10 - - SW 1022,4 10 0,0
20.06.2018 09:00:00 14,9 14,1 22 12 - - SW 1022,3 8 0,0
20.06.2018 08:00:00 14,7 14,2 22 12 - - SW 1022,3 5 0,0
20.06.2018 07:00:00 14,8 14,4 22 12 - - SW 1022,1 - 0,0
20.06.2018 06:00:00 15,2 15,0 22 12 - - SW 1022,0 - 0,0
20.06.2018 05:00:00 14,7 14,5 15 8 - - SW 1022,2 - 0,0
20.06.2018 04:00:00 14,4 14,1 16 9 - - SW 1022,2 - 0,0
20.06.2018 03:00:00 14,9 14,4 15 8 - - SW 1022,6 - 0,0
20.06.2018 02:00:00 15,0 14,6 13 7 - - SW 1022,9 - 0,0
20.06.2018 01:00:00 15,5 14,8 13 7 - - SW 1023,2 - 0,0
20.06.2018 00:00:00 15,1 14,5 13 7 - - SW 1023,3 - 0,0
19.06.2018 23:00:00 15,3 14,6 13 7 - - SW 1023,5 - 0,0
19.06.2018 22:00:00 15,6 14,7 16 9 - - SW 1023,7 - 0,0
19.06.2018 21:00:00 16,2 15,0 24 13 - - SW 1023,3 - 0,0
19.06.2018 20:00:00 17,4 15,2 18 10 - - SW 1023,6 10 0,0
19.06.2018 19:00:00 17,8 15,5 28 15 - - SW 1023,6 10 0,0
19.06.2018 18:00:00 18,4 15,7 26 14 - - SW 1023,9 10 0,0
19.06.2018 17:00:00 19,1 16,1 24 13 - - SW 1024,0 10 0,0
19.06.2018 16:00:00 19,0 15,8 28 15 - - SW 1024,3 10 0,0
19.06.2018 15:00:00 19,7 16,2 24 13 - - SW 1024,4 10 0,0
19.06.2018 14:00:00 19,7 15,9 24 13 - - SW 1024,4 10 0,0
19.06.2018 13:00:00 18,9 15,7 24 13 - - SW 1024,5 10 0,0
19.06.2018 12:00:00 18,6 15,6 24 13 - - WSW 1024,6 10 0,0
19.06.2018 11:00:00 17,1 15,0 26 14 - - SW 1024,4 10 0,0
19.06.2018 10:00:00 17,3 15,5 18 10 - - SW 1024,4 10 0,0
19.06.2018 09:00:00 17,5 15,7 11 6 - - WSW 1024,3 10 0,0
19.06.2018 08:00:00 16,8 15,5 16 9 - - SW 1023,8 8 0,0
19.06.2018 07:00:00 16,9 15,5 11 6 - - SW 1023,5 - 0,0
19.06.2018 06:00:00 16,3 15,2 13 7 - - SW 1023,2 - 0,0
19.06.2018 05:00:00 16,0 15,0 13 7 - - WSW 1022,8 - 0,0
19.06.2018 04:00:00 16,0 15,1 13 7 - - WSW 1022,5 - 0,0
19.06.2018 03:00:00 16,4 15,3 9 5 - - WSW 1022,4 - 0,0
19.06.2018 02:00:00 16,3 15,1 13 7 - - WSW 1022,1 - 0,0
19.06.2018 01:00:00 16,4 15,3 15 8 - - WSW 1022,2 - 0,0
19.06.2018 00:00:00 16,5 15,3 16 9 - - WSW 1022,3 - 0,0
18.06.2018 23:00:00 16,1 15,1 18 10 - - WSW 1022,4 - 0,0
18.06.2018 22:00:00 15,8 14,8 24 13 - - SW 1022,4 - 0,0
18.06.2018 21:00:00 16,1 14,5 16 9 - - SW 1021,9 - 0,0
18.06.2018 20:00:00 16,3 14,3 28 15 - - WSW 1021,6 8 0,0
18.06.2018 19:00:00 16,8 14,2 31 17 48 26 WSW 1021,6 10 0,0
18.06.2018 18:00:00 18,3 14,0 34 18 48 26 SW 1021,1 10 0,0
18.06.2018 17:00:00 18,5 13,3 34 18 52 28 SW 1021,3 10 0,0
18.06.2018 16:00:00 18,2 12,7 35 19 50 27 SW 1021,0 10 0,0
18.06.2018 15:00:00 18,3 13,0 39 21 50 27 SW 1021,0 10 0,0
18.06.2018 14:00:00 18,8 13,3 34 18 48 26 SW 1020,9 10 0,0
18.06.2018 13:00:00 19,2 14,0 28 15 46 25 SW 1020,9 10 0,0
18.06.2018 12:00:00 18,1 14,1 31 17 - - SW 1020,9 10 0,0
18.06.2018 11:00:00 17,7 14,4 24 13 - - SW 1020,4 10 0,0
18.06.2018 10:00:00 16,4 13,6 13 7 - - WSW 1020,4 10 0,0
18.06.2018 09:00:00 15,7 12,3 16 9 - - W 1020,2 10 0,0
18.06.2018 08:00:00 15,5 12,5 21 11 - - W 1019,5 10 0,0
18.06.2018 07:00:00 15,1 13,9 13 7 - - W 1018,5 - 0,0
18.06.2018 06:00:00 14,9 13,6 18 10 - - WSW 1018,3 - 0,0
18.06.2018 05:00:00 15,3 14,1 24 13 - - WSW 1018,2 - 0,0
18.06.2018 04:00:00 15,3 14,9 11 6 - - WSW 1018,1 - 0,0
18.06.2018 03:00:00 15,0 14,7 21 11 - - WSW 1017,8 - 0,0
18.06.2018 02:00:00 15,0 14,7 21 11 - - SW 1017,8 - 0,0
18.06.2018 01:00:00 15,0 14,6 22 12 - - SW 1018,1 - 0,0
18.06.2018 00:00:00 15,0 14,6 22 12 - - SW 1018,1 - 0,0
17.06.2018 23:00:00 14,8 14,3 24 13 - - SW 1018,2 - 0,0
17.06.2018 22:00:00 14,6 14,2 29 16 - - SW 1017,9 - 0,0
17.06.2018 21:00:00 14,7 14,0 28 15 - - SW 1017,9 - 0,0
17.06.2018 20:00:00 14,6 13,4 29 16 48 26 SSW 1017,9 - 0,0
17.06.2018 19:00:00 14,4 13,0 28 15 - - SSW 1018,0 7 0,0
17.06.2018 18:00:00 14,4 12,5 34 18 46 25 SW 1018,1 6 0,0
17.06.2018 17:00:00 14,9 12,0 31 17 50 27 SW 1018,3 10 0,0
17.06.2018 16:00:00 15,9 12,3 31 17 48 26 SW 1018,2 10 0,0
17.06.2018 15:00:00 17,2 12,1 31 17 50 27 SW 1018,2 10 0,0
17.06.2018 14:00:00 17,1 12,9 34 18 48 26 SW 1018,3 10 0,0
17.06.2018 13:00:00 18,2 13,9 37 20 52 28 SW 1018,0 10 0,0
17.06.2018 12:00:00 16,4 11,8 31 17 48 26 SW 1017,9 10 0,0
17.06.2018 11:00:00 16,2 11,9 31 17 - - SW 1017,8 10 0,0
17.06.2018 10:00:00 16,8 12,0 22 12 - - WSW 1017,7 10 0,0
17.06.2018 09:00:00 16,1 12,3 22 12 - - WSW 1017,3 10 0,0
17.06.2018 08:00:00 13,6 11,3 16 9 - - W 1017,5 - 0,2
17.06.2018 07:00:00 13,8 10,5 15 8 - - W 1016,5 - 0,0
17.06.2018 06:00:00 14,1 10,3 15 8 - - WSW 1016,3 - 0,0
17.06.2018 05:00:00 14,1 9,9 16 9 - - WSW 1016,1 - 0,0
17.06.2018 04:00:00 13,5 9,4 11 6 - - WSW 1015,9 - 0,0
17.06.2018 03:00:00 13,8 10,3 11 6 - - W 1016,0 - 0,0
17.06.2018 02:00:00 14,5 10,8 13 7 - - W 1016,1 - 0,0
17.06.2018 01:00:00 14,4 11,2 13 7 - - W 1016,0 - 0,0
17.06.2018 00:00:00 13,7 11,5 13 7 - - W 1015,8 - 0,0
16.06.2018 23:00:00 14,7 11,7 18 10 - - WSW 1015,6 - 0,0
16.06.2018 22:00:00 14,7 12,0 24 13 - - WSW 1015,4 - 0,0
16.06.2018 21:00:00 14,9 12,7 26 14 - - SW 1014,7 - 0,0
16.06.2018 20:00:00 14,9 12,8 31 17 52 28 SW 1014,6 - 0,0
16.06.2018 19:00:00 15,0 12,9 37 20 48 26 SW 1014,7 10 0,0
16.06.2018 18:00:00 14,9 13,1 31 17 46 25 SW 1014,9 10 0,0
16.06.2018 17:00:00 14,8 13,0 31 17 48 26 SW 1015,1 10 0,0
16.06.2018 16:00:00 15,3 12,5 29 16 - - SSW 1015,4 10 0,0
16.06.2018 15:00:00 16,1 12,1 34 18 48 26 SW 1015,4 10 0,0
16.06.2018 14:00:00 17,0 12,2 29 16 46 25 SW 1015,5 10 0,0
16.06.2018 13:00:00 17,4 11,9 31 17 - - SW 1015,6 10 0,0
16.06.2018 12:00:00 16,1 12,3 28 15 - - SW 1015,8 10 0,0
16.06.2018 11:00:00 18,1 13,2 29 16 - - SW 1015,8 10 0,0
16.06.2018 10:00:00 17,4 13,5 29 16 - - SW 1015,6 10 0,0
16.06.2018 09:00:00 15,7 13,2 24 13 - - SW 1015,6 10 0,0
16.06.2018 08:00:00 15,4 11,8 22 12 - - SW 1015,5 - 0,0
16.06.2018 07:00:00 14,7 12,2 16 9 - - SW 1015,4 - 0,0
16.06.2018 06:00:00 14,0 12,4 15 8 - - SW 1015,1 - 0,0
16.06.2018 05:00:00 13,0 12,2 9 5 - - SW 1015,2 - 0,0
16.06.2018 04:00:00 12,6 11,8 5 3 - - WSW 1015,6 - 0,0
16.06.2018 03:00:00 12,2 11,2 4 2 - - W 1015,9 - 0,0
16.06.2018 02:00:00 13,0 11,9 5 3 - - W 1016,0 - 0,0
16.06.2018 01:00:00 12,7 11,2 2 1 - - N 1016,1 - 0,0
16.06.2018 00:00:00 13,3 11,5 4 2 - - WNW 1016,1 - 0,0
15.06.2018 23:00:00 13,6 11,5 11 6 - - W 1016,2 - 0,0
15.06.2018 22:00:00 14,2 11,1 13 7 - - WSW 1016,3 - 0,0
15.06.2018 21:00:00 15,6 11,8 16 9 - - WSW 1016,3 - 0,0
15.06.2018 20:00:00 16,2 11,6 18 10 - - WSW 1016,4 - 0,0
15.06.2018 19:00:00 16,7 11,7 24 13 - - SW 1016,3 10 0,0
15.06.2018 18:00:00 18,1 11,3 22 12 - - SW 1016,6 10 0,0
15.06.2018 17:00:00 18,3 11,1 26 14 - - SW 1016,8 10 0,0
15.06.2018 16:00:00 19,4 10,3 22 12 - - SW 1017,0 10 0,0
15.06.2018 15:00:00 19,4 11,7 26 14 - - SW 1017,2 10 0,0
15.06.2018 14:00:00 19,4 11,1 26 14 - - SW 1017,2 10 0,0
15.06.2018 13:00:00 19,1 10,5 21 11 - - SW 1017,1 10 0,0
15.06.2018 12:00:00 19,4 10,7 16 9 - - SSW 1017,2 10 0,0
15.06.2018 11:00:00 19,1 12,2 13 7 - - S 1016,6 10 0,0

tt = Température de l'air
td = dewpoint
ff = Vitesse du vent
fx = gusts
dd = Direction du vent
ppp = reduced air pressure
vv = visibility
rr = Quantités de précipitations

stations d'obs. à proximité